Houghton Lake, MI

9:46 PM EDT on July 24, 2017 (GMT -0400)
Roscommon County

Weather History for KHTL - November, 2013

Change the Weather History Date:

Monday, November 11, 2013

  Actual Average Record
Temperature  
Mean Temperature 30 °F 37 °F  
Max Temperature 37 °F 44 °F 66 °F (2012)
Min Temperature 22 °F 29 °F 6 °F (1926)
Degree Days  
Heating Degree Days 35 28  
Month to date heating degree days 285 292  
Since 1 July heating degree days 1202 1270  
Moisture  
Dew Point 26 °F    
Average Humidity 87    
Maximum Humidity 100    
Minimum Humidity 74    
Precipitation  
Precipitation 0.25 in 0.08 in 0.65 in (1995)
Month to date precipitation 1.28 0.86  
Year to date precipitation 26.62 25.64  
Snow  
Snow T in 0.20 in 7.10 in (1995)
Month to date snowfall T 1.8  
Since 1 July snowfall T 2.4  
Snow Depth 0.00 in    
Sea Level Pressure  
Sea Level Pressure 30.11 in    
Wind  
Wind Speed 11 mph (NW)    
Max Wind Speed 23 mph    
Max Gust Speed 32 mph    
Visibility 6 miles    
Events Rain , Snow    
T = Trace of Precipitation, MM = Missing Value Source: NWS Daily Summary

Daily Weather History Graph

Daily Weather History Graph

Search for Another Location

Airport or City:

Trip Planner

Search our weather history database for the weather conditions in past years. The results will help you decide how hot, cold, wet, or windy it might be!

Date:

Astronomy

Nov. 11, 2013 Rise Set
Actual Time 7:29 AM EST 5:15 PM EST
Civil Twilight 6:58 AM EST 5:46 PM EST
Nautical Twilight 6:23 AM EST 6:21 PM EST
Astronomical Twilight 5:49 AM EST 6:55 PM EST
Moon 2:08 PM EST (11/11) 1:00 AM EST (11/11)
Length of Visible Light 10h 47m
Length of Day
9h 45m
Waxing Gibbous, 66% of the Moon is Illuminated
Nov 11
Waxing Gibbous
Nov 17
Full
Nov 25
Last Quarter
Dec 2
New
Dec 9
First Quarter

Hourly Weather History & Observations

Time (EST) Temp. Windchill Dew Point Humidity Pressure Visibility Wind Dir Wind Speed Gust Speed Precip Events Conditions
12:53 AM 36.0 °F 29.0 °F 30.0 °F 79% 30.12 in 10.0 mi SW 9.2 mph - N/A   Overcast
1:53 AM 37.0 °F 28.9 °F 30.9 °F 79% 30.11 in 10.0 mi WSW 12.7 mph - N/A   Overcast
2:41 AM 37.0 °F 31.0 °F 33.1 °F 86% 30.05 in 10.0 mi SW 8.1 mph - 0.01 in Rain Light Rain
2:53 AM 36.0 °F 28.0 °F 34.0 °F 93% 30.08 in 9.0 mi WSW 11.5 mph - 0.01 in Rain Light Rain
3:24 AM 35.1 °F 25.9 °F 34.0 °F 96% 30.04 in 8.0 mi WSW 13.8 mph 19.6 mph 0.02 in Rain Light Rain
3:53 AM 35.1 °F 26.9 °F 33.1 °F 92% 30.06 in 9.0 mi SW 11.5 mph - 0.04 in   Overcast
4:28 AM 35.1 °F 27.4 °F 33.1 °F 92% 30.00 in 10.0 mi West 10.4 mph - 0.00 in   Overcast
4:53 AM 35.1 °F 26.4 °F 33.1 °F 92% 30.04 in 6.0 mi West 12.7 mph - 0.01 in Rain Rain
5:02 AM 34.0 °F 26.0 °F 33.1 °F 96% 30.00 in 3.0 mi West 10.4 mph - 0.01 in Snow Light Snow
5:04 AM 34.0 °F 25.5 °F 33.1 °F 96% 30.00 in 2.5 mi West 11.5 mph - 0.02 in Snow Light Snow
5:20 AM 34.0 °F 26.0 °F 33.1 °F 96% 30.00 in 3.0 mi West 10.4 mph - 0.04 in Snow Light Snow
5:38 AM 34.0 °F 26.0 °F 33.1 °F 96% 30.00 in 5.0 mi West 10.4 mph - 0.06 in Snow Light Snow
5:53 AM 34.0 °F 26.6 °F 33.1 °F 96% 30.03 in 5.0 mi WSW 9.2 mph - 0.07 in Snow Light Snow
6:53 AM 33.1 °F 26.1 °F 32.0 °F 96% 30.01 in 3.0 mi WSW 8.1 mph - 0.03 in Snow Light Snow
6:58 AM 33.1 °F 26.1 °F 32.0 °F 96% 29.98 in 2.5 mi WSW 8.1 mph - 0.00 in Snow Light Snow
7:12 AM 33.1 °F 26.9 °F 32.0 °F 96% 29.97 in 3.0 mi WSW 6.9 mph - 0.01 in Snow Light Snow
7:53 AM 33.1 °F 25.5 °F 33.1 °F 100% 30.02 in 2.0 mi WSW 9.2 mph - 0.03 in Snow Light Snow
8:02 AM 33.1 °F 25.5 °F 32.0 °F 96% 29.98 in 1.8 mi WSW 9.2 mph - 0.00 in Snow Light Snow
8:11 AM 33.1 °F 25.5 °F 33.1 °F 100% 29.99 in 2.5 mi WSW 9.2 mph - 0.01 in Snow Light Snow
8:53 AM 34.0 °F 26.0 °F 33.1 °F 96% 30.02 in 3.0 mi West 10.4 mph - 0.03 in Snow Light Snow
9:01 AM 34.0 °F 25.5 °F 33.1 °F 96% 29.98 in 2.5 mi West 11.5 mph - 0.00 in Snow Light Snow
9:14 AM 33.1 °F 24.9 °F 32.0 °F 96% 29.99 in 2.0 mi West 10.4 mph - 0.01 in Snow Light Snow
9:41 AM 34.0 °F 25.0 °F 33.1 °F 96% 30.00 in 3.0 mi NW 12.7 mph - 0.02 in Snow Light Snow
9:48 AM 33.8 °F 23.5 °F 32.0 °F 93% 30.00 in 1.5 mi NW 16.1 mph 19.6 mph 0.02 in Snow Light Snow
9:53 AM 33.1 °F 23.4 °F 30.9 °F 92% 30.04 in 1.0 mi NNW 13.8 mph 19.6 mph 0.02 in Snow Light Snow
10:00 AM 32.0 °F 22.1 °F 30.0 °F 92% 30.01 in 1.0 mi NNW 13.8 mph - 0.01 in Snow Light Snow
10:04 AM 32.0 °F 20.8 °F 30.0 °F 92% 30.01 in 1.2 mi NNW 17.3 mph 21.9 mph 0.01 in Snow Light Snow
10:11 AM 32.0 °F 23.0 °F 28.9 °F 88% 30.02 in 1.5 mi NNW 11.5 mph 21.9 mph 0.01 in Snow Light Snow
10:25 AM 32.0 °F 21.6 °F 28.9 °F 88% 30.02 in 2.0 mi NNW 15.0 mph 24.2 mph 0.01 in Snow Light Snow
10:35 AM 30.9 °F 21.7 °F 28.0 °F 89% 30.03 in 4.0 mi NNW 11.5 mph 26.5 mph 0.01 in Snow Light Snow
10:49 AM 30.2 °F 19.8 °F 26.6 °F 86% 30.03 in 10.0 mi North 13.8 mph 26.5 mph 0.01 in   Overcast
10:53 AM 30.9 °F 20.2 °F 27.0 °F 85% 30.08 in 8.0 mi North 15.0 mph 23.0 mph 0.01 in   Overcast
11:43 AM 30.0 °F 20.0 °F 26.1 °F 85% 30.05 in 9.0 mi NNW 12.7 mph - 0.00 in   Overcast
11:51 AM 30.2 °F 20.8 °F 26.6 °F 86% 30.05 in 3.0 mi North 11.5 mph - 0.00 in Snow Light Snow
11:53 AM 30.0 °F 21.7 °F 26.1 °F 85% 30.10 in 2.5 mi North 9.2 mph 19.6 mph 0.00 in Snow Light Snow
12:02 PM 30.9 °F 20.2 °F 26.1 °F 82% 30.06 in 6.0 mi NW 15.0 mph 23.0 mph 0.00 in Snow Light Snow
12:14 PM 30.0 °F 19.1 °F 24.1 °F 79% 30.07 in 10.0 mi North 15.0 mph 25.3 mph 0.00 in   Overcast
12:53 PM 28.9 °F 19.8 °F 21.9 °F 75% 30.12 in 10.0 mi NNW 10.4 mph 23.0 mph 0.00 in   Overcast
1:20 PM 28.0 °F 15.3 °F 19.0 °F 69% 30.08 in 10.0 mi North 18.4 mph 23.0 mph 0.00 in   Overcast
1:53 PM 28.0 °F 17.5 °F 21.0 °F 75% 30.13 in 9.0 mi NNW 12.7 mph 21.9 mph 0.00 in   Overcast
2:53 PM 28.0 °F 19.3 °F 21.0 °F 75% 30.15 in 8.0 mi NNW 9.2 mph 21.9 mph 0.00 in Snow Light Snow
3:06 PM 28.0 °F 16.5 °F 19.9 °F 72% 30.11 in 9.0 mi NNW 15.0 mph 21.9 mph 0.00 in   Overcast
3:53 PM 27.0 °F 15.6 °F 19.9 °F 75% 30.18 in 7.0 mi NNW 13.8 mph - 0.00 in Snow Light Snow
4:53 PM 26.1 °F 16.2 °F 19.9 °F 78% 30.19 in 10.0 mi NNW 10.4 mph - 0.00 in   Mostly Cloudy
5:23 PM 26.1 °F 17.6 °F 19.9 °F 78% 30.17 in 4.0 mi NNW 8.1 mph - 0.00 in Snow Light Snow
5:28 PM 26.1 °F 17.6 °F 21.0 °F 81% 30.17 in 1.8 mi NW 8.1 mph - 0.00 in Snow Light Snow
5:36 PM 25.0 °F 14.8 °F 21.9 °F 88% 30.17 in 3.0 mi NW 10.4 mph - 0.00 in Snow Light Snow
5:53 PM 25.0 °F 13.1 °F 19.9 °F 81% 30.23 in 9.0 mi NNW 13.8 mph 20.7 mph 0.00 in Snow Light Snow
6:50 PM 24.8 °F 15.3 °F 19.4 °F 80% 30.20 in 7.0 mi NW 9.2 mph - 0.00 in Snow Light Snow
6:53 PM 24.1 °F 12.0 °F 19.9 °F 84% 30.25 in 6.0 mi NW 13.8 mph - 0.00 in Snow Light Snow
7:13 PM 24.1 °F 15.2 °F 19.9 °F 84% 30.21 in 9.0 mi NW 8.1 mph - 0.00 in   Mostly Cloudy
7:53 PM 24.1 °F 17.0 °F 19.9 °F 84% 30.27 in 10.0 mi NW 5.8 mph - 0.00 in   Scattered Clouds
8:53 PM 25.0 °F 13.6 °F 17.1 °F 72% 30.30 in 10.0 mi NNW 12.7 mph 19.6 mph N/A   Mostly Cloudy
9:53 PM 25.0 °F 14.2 °F 17.1 °F 72% 30.33 in 10.0 mi NNW 11.5 mph 21.9 mph 0.00 in   Overcast
10:26 PM 24.1 °F 11.0 °F 18.0 °F 77% 30.29 in 10.0 mi NNW 16.1 mph 21.9 mph 0.00 in   Mostly Cloudy
10:33 PM 23.0 °F 12.4 °F 18.0 °F 81% 30.29 in 10.0 mi North 10.4 mph 21.9 mph 0.00 in   Scattered Clouds
10:53 PM 23.0 °F 13.1 °F 18.0 °F 81% 30.35 in 10.0 mi NNW 9.2 mph - 0.00 in   Scattered Clouds
11:00 PM 23.0 °F 13.9 °F 18.0 °F 81% 30.30 in 10.0 mi NNW 8.1 mph - N/A   Mostly Cloudy
11:30 PM 23.0 °F 17.0 °F 18.0 °F 81% 30.31 in 10.0 mi NNW 4.6 mph - N/A   Scattered Clouds
11:53 PM 21.9 °F 13.4 °F 18.0 °F 85% 30.38 in 10.0 mi NNW 6.9 mph - N/A   Clear